Location: Zagreb
(45.8000°N, 16.0000°E)
Time: 05:57:26
(UTC+02:00)

BlueWalker 3 - Visible Passes

Search period start: 23 September 2023 00:00
Search period end: 03 October 2023 00:00
Orbit: 492 x 508 km, 53.2° (Epoch: 22 September)

Date Brightness Start Highest point End Pass type
(mag) Time Alt. Az. Time Alt. Az. Time Alt. Az.
23 Sep 5.1 03:14:36 13° ENE 03:14:36 13° ENE 03:15:02 10° ENE visible
23 Sep 3.2 04:49:14 28° NW 04:50:00 31° NNW 04:53:28 10° NE visible
24 Sep 3.3 04:28:36 30° N 04:28:36 30° N 04:31:59 10° NE visible
24 Sep 3.5 06:04:21 10° NW 06:07:44 28° N 06:11:09 10° ENE visible
25 Sep 3.8 04:07:58 27° NNE 04:07:58 27° NNE 04:10:29 10° NE visible
25 Sep 3.5 05:42:51 10° NW 05:46:15 28° N 05:49:39 10° ENE visible
26 Sep 4.4 03:47:21 20° NE 03:47:21 20° NE 03:48:59 10° NE visible
26 Sep 3.6 05:21:58 13° NW 05:24:45 29° N 05:28:09 10° ENE visible
27 Sep 5.0 03:26:44 14° NE 03:26:44 14° NE 03:27:27 10° NE visible
27 Sep 3.6 05:01:22 19° NW 05:03:14 29° N 05:06:37 10° ENE visible
28 Sep 3.5 04:40:48 26° NNW 04:41:41 29° N 04:45:05 10° ENE visible
28 Sep 2.2 06:16:45 10° NW 06:20:36 72° NNE 06:24:28 10° ESE visible
29 Sep 3.6 04:20:17 29° NNE 04:20:17 29° NNE 04:23:32 10° ENE visible
29 Sep 2.1 05:55:12 10° NW 05:59:03 72° NNE 06:02:54 10° ESE visible
30 Sep 4.2 03:59:49 24° NE 03:59:49 24° NE 04:01:58 10° ENE visible
30 Sep 2.1 05:34:28 16° NW 05:37:29 73° NNE 05:41:21 10° ESE visible
01 Oct 4.9 03:39:28 15° ENE 03:39:28 15° ENE 03:40:24 10° ENE visible
01 Oct 2.0 05:14:06 30° NW 05:15:54 73° NNE 05:19:46 10° ESE visible
02 Oct 2.0 04:53:52 64° NNW 04:54:19 73° NNE 04:58:10 10° ESE visible
